This is the latest recevied weather packets stored in our database for station/object WP3OF-2. If no packets are shown the sender has not sent any weather packets the latest 10 day(s).
| Time | Temp. | Humidity | Pressure | Rain* | Wind** | Luminosity | Snow |
|---|---|---|---|---|---|---|---|
| 1778024294 | 20° C | 99% | 1027.1 hPa | 0 mm | - | 0 W/m² | - |
| 1778023992 | 20° C | 99% | 1026.7 hPa | 0 mm | - | 0 W/m² | - |
| 1778023689 | 20° C | 99% | 1026.7 hPa | 0 mm | - | 0 W/m² | - |
| 1778023386 | 20° C | 98% | 1026.7 hPa | 0 mm | - | 0 W/m² | - |
| 1778023083 | 20° C | 98% | 1027.1 hPa | 0 mm | - | 0 W/m² | - |
| 1778022781 | 20° C | 98% | 1026.7 hPa | 0 mm | - | 0 W/m² | - |
| 1778022479 | 20° C | 98% | 1026.7 hPa | 0 mm | - | 0 W/m² | - |
| 1778022175 | 20° C | 98% | 1026.7 hPa | 0 mm | - | 0 W/m² | - |
| 1778021872 | 20° C | 98% | 1026.7 hPa | 0 mm | - | 0 W/m² | - |
| 1778021569 | 20° C | 98% | 1026.7 hPa | 0 mm | - | 2 W/m² | - |
| 1778021264 | 20.56° C | 98% | 1026.3 hPa | 0 mm | - | 4 W/m² | - |
| 1778020962 | 20.56° C | 97% | 1026.7 hPa | 0 mm | - | 7 W/m² | - |
| 1778020659 | 20.56° C | 97% | 1026.3 hPa | 0 mm | - | 12 W/m² | - |
| 1778020356 | 20.56° C | 96% | 1026.3 hPa | 0 mm | - | 16 W/m² | - |
| 1778020052 | 21.11° C | 95% | 1026.3 hPa | 0 mm | - | 22 W/m² | - |
| 1778019748 | 21.11° C | 95% | 1026.3 hPa | 0 mm | - | 27 W/m² | - |
| 1778019445 | 21.11° C | 94% | 1026.3 hPa | 0 mm | - | 35 W/m² | - |
| 1778019142 | 21.11° C | 94% | 1026.3 hPa | 0 mm | - | 59 W/m² | - |
| 1778018839 | 21.11° C | 94% | 1026.3 hPa | 0 mm | - | 71 W/m² | - |
| 1778018537 | 21.11° C | 93% | 1026.3 hPa | 0 mm | - | 87 W/m² | - |
| 1778018234 | 21.67° C | 93% | 1026.3 hPa | 0 mm | - | 109 W/m² | - |
| 1778017931 | 21.67° C | 93% | 1026 hPa | 0 mm | - | 124 W/m² | - |
| 1778017623 | 21.67° C | 93% | 1026.3 hPa | 0 mm | - | 144 W/m² | - |
| 1778017321 | 21.67° C | 93% | 1026 hPa | 0 mm | - | 163 W/m² | - |
| 1778017018 | 21.67° C | 93% | 1026 hPa | 0 mm | - | 182 W/m² | - |
* Rain latest hour (hover to see other rain measurements)
** Current wind speed in m/s (hover to see current wind gust speed)